Hourly Data Report for July 06, 2022

PORT ALBERNI (AUT)
BRITISH COLUMBIA
Current Station Operator: ECCC - MSC

49°18'59.700" N
124°55'36.600" W
76.20 m
1036B06
71475
WQC

Download Data

Hourly Data (July 2022)
Hourly Data Report for July 6, 2022
TIME
LST
Temp Definition
°C
Dew Point Definition
°C
Rel Hum Definition
%
Precip. Amount Definition
mm

Wind Dir Definition
10's deg

Wind Spd Definition
km/h
Visibility Definition
km
Stn Press Definition
kPa
Hmdx Definition


Wind Chill Definition


Weather Definition


00:00 15.4 15.0 98 0.4 0 1   100.48     LegendNANA
01:00 15.1 14.8 98 1.5 0 1   100.48     LegendNANA
02:00 15.1 14.8 98 0.1 7 2   100.46     LegendNANA
03:00 15.0 14.7 98 0.1 29 5   100.45     LegendNANA
04:00 14.9 14.7 98 0.0 0 1   100.46     LegendNANA
05:00 15.0 14.7 98 0.0 4 3   100.48     LegendNANA
06:00 15.0 14.6 98 0.0   0   100.49     LegendNANA
07:00 15.3 14.6 96 0.0   0   100.50     LegendNANA
08:00 15.7 14.6 93 0.0   0   100.51     LegendNANA
09:00 15.7 14.6 93 0.0 20 2   100.52     LegendNANA
10:00 16.0 15.0 93 0.2 24 7   100.53     LegendNANA
11:00 16.4 13.9 85 0.0 26 6   100.54     LegendNANA
12:00 17.6 14.1 80 0.0 24 5   100.52     LegendNANA
13:00 17.3 14.9 86 0.0 27 4   100.53     LegendNANA
14:00 18.6 14.9 79 0.0 34 3   100.53     LegendNANA
15:00 17.8 15.9 89 0.0 13 7   100.53     LegendNANA
16:00 18.4 15.5 83 0.0 12 8   100.53     LegendNANA
17:00 18.4 15.2 82 0.0 11 8   100.51     LegendNANA
18:00 19.0 14.8 76 0.0 15 6   100.50     LegendNANA
19:00 18.7 15.8 83 0.0 10 6   100.52     LegendNANA
20:00 17.6 15.1 85 0.0 13 5   100.54     LegendNANA
21:00 16.2 14.9 92 0.0 11 7   100.58     LegendNANA
22:00 15.5 14.3 93 0.0 15 8   100.59     LegendNANA
23:00 14.7 13.7 94 0.0 13 8   100.59     LegendNANA

Notes on Data Quality.

Legend

  • E = Estimated
  • M = Missing
  • NA = Not Available*
  • [empty] = Indicates an unobserved value
Date modified: